CAPE
248 73 76 200 170 17 0 4 0 0 0 0 0 0 0 0 0 0 0 0 0 0 0 0 0 0 0 0 0 0 0 0 0 0 0 0 0 0 0 0 0 0 0
248 185 177 98 103 18 0 0 0 0 0 0 0 0 0 0 0 0 0 0 0 0 0 0 0 0 0 0 0 0 0 0 0 0 0 0 0 0 0 0 0 0 0
305 302 301 68 87 6 0 0 0 0 0 0 0 0 0 0 0 0 0 0 0 0 0 0 0 0 0 0 0 0 0 0 0 0 0 0 0 0 0 0 0 0 0
198 244 351 129 8 0 0 6 0 0 0 0 0 0 0 0 0 0 0 0 0 0 0 0 0 0 0 0 0 0 0 0 0 0 0 0 0 0 0 0 0 0 0
25 81 261 246 49 6 0 0 0 0 0 0 0 0 0 0 0 0 0 0 0 0 0 0 0 0 0 0 0 0 0 0 0 0 0 0 0 0 0 0 0 0 0
0 3 115 94 31 0 6 1 0 0 0 0 0 0 0 0 0 0 0 0 0 0 0 0 0 0 0 0 0 0 0 0 0 0 0 0 0 0 0 0 0 0 0
0 0 12 40 19 0 11 18 0 0 0 0 0 0 0 0 0 0 0 0 0 0 0 0 0 0 0 0 0 0 0 0 0 0 0 0 0 0 0 0 0 0 0
0 0 0 35 21 0 3 19 0 0 0 0 0 0 0 0 0 0 0 0 0 0 0 0 0 0 0 0 0 0 0 0 0 0 0 0 0 0 0 0 0 0 0
0 0 0 0 2 0 16 14 19 0 0 0 0 0 0 0 0 0 0 0 0 0 0 0 0 0 0 0 0 0 0 0 0 0 0 0 0 0 0 0 0 0 0
0 0 0 0 0 0 8 0 3 0 0 0 0 0 0 0 0 0 0 0 0 0 0 0 0 0 0 0 0 0 0 0 0 0 0 0 0 0 0 0 0 0 0
0 0 0 0 0 0 0 0 0 0 0 0 0 0 0 0 0 0 0 0 0 0 0 0 0 0 0 0 0 0 0 0 0 0 0 0 0 0 0 0 0 0 0
0 0 0 0 0 0 0 0 0 0 0 0 0 0 0 0 0 0 0 0 0 0 0 0 0 0 0 0 0 0 0 0 0 0 0 0 0 0 0 0 0 0 0
0 0 0 0 0 0 0 0 0 0 0 0 0 0 0 0 0 0 0 0 0 0 0 0 0 0 0 0 0 0 0 0 0 0 0 0 0 0 0 0 0 0 0
0 0 0 0 0 0 0 0 0 0 0 0 0 0 0 0 0 0 0 0 0 0 0 0 0 0 0 0 0 0 0 0 0 0 0 0 0 0 0 0 0 0 0
0 0 0 0 0 0 0 0 0 0 0 0 0 0 0 0 0 0 0 0 0 0 0 0 0 0 0 0 0 0 0 0 0 0 0 0 0 0 0 0 0 0 0
0 0 0 0 0 0 0 0 0 0 0 0 0 0 0 0 0 0 0 0 0 0 0 0 0 0 0 0 0 0 0 0 0 0 0 0 0 0 0 0 0 0 0
0 0 0 0 0 0 0 0 0 0 0 0 0 0 0 0 0 0 0 0 0 0 0 0 0 0 0 0 0 0 0 0 0 0 0 0 0 0 0 0 0 0 0
0 0 0 0 0 0 0 0 0 0 0 0 0 0 0 0 0 0 0 0 0 0 0 0 0 0 0 0 0 0 0 0 0 0 0 0 0 0 0 0 0 0 0
0 0 0 0 0 0 0 0 0 0 0 0 0 0 0 0 0 0 0 0 0 0 0 0 0 0 0 0 0 0 0 0 0 0 0 0 0 0 0 0 0 0 0
0 0 0 0 0 0 0 0 0 0 0 0 0 0 0 0 0 0 0 0 0 0 0 0 0 0 0 0 0 0 0 0 0 0 0 0 0 0 0 0 0 0 0
0 0 0 0 0 0 0 0 0 0 0 0 0 0 0 0 0 0 0 0 0 0 0 0 0 0 0 0 0 0 0 0 0 0 0 0 0 0 0 0 0 0 0
0 0 0 0 0 0 0 0 0 0 0 0 0 0 0 0 0 0 0 0 0 0 0 0 0 0 0 0 0 0 0 0 0 0 0 0 0 0 0 0 0 0 0
0 0 0 0 0 0 0 0 0 0 0 0 0 0 0 0 0 0 0 0 0 0 0 0 0 0 0 0 0 0 0 0 0 0 0 0 0 0 0 0 0 0 0
0 0 0 0 0 0 0 0 0 0 0 0 0 0 0 0 0 0 0 0 0 0 0 0 0 0 0 0 0 0 0 0 0 0 0 0 0 0 0 0 0 0 0
0 0 0 0 0 0 0 0 0 0 0 0 0 0 0 0 0 0 0 0 0 0 0 0 0 0 0 0 0 0 0 0 0 0 0 0 0 0 0 0 0 0 0
0 0 0 0 0 0 0 0 0 0 0 0 0 0 0 0 0 0 0 0 0 0 1 4 1 0 0 0 0 0 0 0 0 0 0 0 0 0 0 0 0 0 0
CIN
-229 -321 -338 -234 -229 -169 -0 -385 -0 -0 -0 -0 -0 -0 -0 -0 -0 -0 -0 -0 -0 -0 -0 -0 -0 -0 -0 -0 -0 -0 -0 -0 -0 -0 -0 -0 -0 -0 -0 -0 -0 -0 -0
-266 -310 -315 -331 -336 -217 -0 -0 -0 -0 -0 -0 -0 -0 -0 -0 -0 -0 -0 -0 -0 -0 -0 -0 -0 -0 -0 -0 -0 -0 -0 -0 -0 -0 -0 -0 -0 -0 -0 -0 -0 -0 -0
-307 -293 -289 -414 -355 -252 -0 -0 -0 -0 -0 -0 -0 -0 -0 -0 -0 -0 -0 -0 -0 -0 -0 -0 -0 -0 -0 -0 -0 -0 -0 -0 -0 -0 -0 -0 -0 -0 -0 -0 -0 -0 -0
-361 -346 -354 -446 -401 -0 -0 -446 -0 -0 -0 -0 -0 -0 -0 -0 -0 -0 -0 -0 -0 -0 -0 -0 -0 -0 -0 -0 -0 -0 -0 -0 -0 -0 -0 -0 -0 -0 -0 -0 -0 -0 -0
-449 -484 -417 -427 -553 -574 -0 -0 -0 -0 -0 -0 -0 -0 -0 -0 -0 -0 -0 -0 -0 -0 -0 -0 -0 -0 -0 -0 -0 -0 -0 -0 -0 -0 -0 -0 -0 -0 -0 -0 -0 -0 -0
-0 -134 -445 -451 -557 -0 -609 -177 -0 -0 -0 -0 -0 -0 -0 -0 -0 -0 -0 -0 -0 -0 -0 -0 -0 -0 -0 -0 -0 -0 -0 -0 -0 -0 -0 -0 -0 -0 -0 -0 -0 -0 -0
-0 -0 -440 -548 -621 -0 -610 -529 -0 -0 -0 -0 -0 -0 -0 -0 -0 -0 -0 -0 -0 -0 -0 -0 -0 -0 -0 -0 -0 -0 -0 -0 -0 -0 -0 -0 -0 -0 -0 -0 -0 -0 -0
-0 -0 -0 -568 -564 -0 -425 -466 -0 -0 -0 -0 -0 -0 -0 -0 -0 -0 -0 -0 -0 -0 -0 -0 -0 -0 -0 -0 -0 -0 -0 -0 -0 -0 -0 -0 -0 -0 -0 -0 -0 -0 -0
-0 -0 -0 -0 -534 -0 -532 -502 -419 -0 -0 -0 -0 -0 -0 -0 -0 -0 -0 -0 -0 -0 -0 -0 -0 -0 -0 -0 -0 -0 -0 -0 -0 -0 -0 -0 -0 -0 -0 -0 -0 -0 -0
-0 -0 -0 -0 -0 -0 -549 -0 -198 -0 -0 -0 -0 -0 -0 -0 -0 -0 -0 -0 -0 -0 -0 -0 -0 -0 -0 -0 -0 -0 -0 -0 -0 -0 -0 -0 -0 -0 -0 -0 -0 -0 -0
-0 -0 -0 -0 -0 -0 -0 -0 -0 -0 -0 -0 -0 -0 -0 -0 -0 -0 -0 -0 -0 -0 -0 -0 -0 -0 -0 -0 -0 -0 -0 -0 -0 -0 -0 -0 -0 -0 -0 -0 -0 -0 -0
-0 -0 -0 -0 -0 -0 -0 -0 -0 -0 -0 -0 -0 -0 -0 -0 -0 -0 -0 -0 -0 -0 -0 -0 -0 -0 -0 -0 -0 -0 -0 -0 -0 -0 -0 -0 -0 -0 -0 -0 -0 -0 -0
-0 -0 -0 -0 -0 -0 -0 -0 -0 -0 -0 -0 -0 -0 -0 -0 -0 -0 -0 -0 -0 -0 -0 -0 -0 -0 -0 -0 -0 -0 -0 -0 -0 -0 -0 -0 -0 -0 -0 -0 -0 -0 -0
-0 -0 -0 -0 -0 -0 -0 -0 -0 -0 -0 -0 -0 -0 -0 -0 -0 -0 -0 -0 -0 -0 -0 -0 -0 -0 -0 -0 -0 -0 -0 -0 -0 -0 -0 -0 -0 -0 -0 -0 -0 -0 -0
-0 -0 -0 -0 -0 -0 -0 -0 -0 -0 -0 -0 -0 -0 -0 -0 -0 -0 -0 -0 -0 -0 -0 -0 -0 -0 -0 -0 -0 -0 -0 -0 -0 -0 -0 -0 -0 -0 -0 -0 -0 -0 -0
-0 -0 -0 -0 -0 -0 -0 -0 -0 -0 -0 -0 -0 -0 -0 -0 -0 -0 -0 -0 -0 -0 -0 -0 -0 -0 -0 -0 -0 -0 -0 -0 -0 -0 -0 -0 -0 -0 -0 -0 -0 -0 -0
-0 -0 -0 -0 -0 -0 -0 -0 -0 -0 -0 -0 -0 -0 -0 -0 -0 -0 -0 -0 -0 -0 -0 -0 -0 -0 -0 -0 -0 -0 -0 -0 -0 -0 -0 -0 -0 -0 -0 -0 -0 -0 -0
-0 -0 -0 -0 -0 -0 -0 -0 -0 -0 -0 -0 -0 -0 -0 -0 -0 -0 -0 -0 -0 -0 -5 -0 -0 -0 -0 -0 -0 -0 -0 -0 -0 -0 -0 -0 -0 -0 -0 -0 -0 -0 -0
-0 -0 -0 -0 -0 -0 -0 -0 -0 -0 -0 -0 -0 -0 -0 -0 -0 -0 -0 -0 -0 -0 -0 -0 -0 -0 -0 -0 -0 -0 -0 -0 -0 -0 -0 -0 -0 -0 -0 -0 -0 -0 -0
-0 -0 -0 -0 -0 -0 -0 -0 -0 -0 -0 -0 -0 -0 -0 -0 -0 -0 -0 -0 -0 -0 -0 -0 -0 -0 -0 -0 -0 -0 -0 -0 -0 -0 -0 -0 -0 -0 -0 -0 -0 -0 -0
-0 -0 -0 -0 -0 -0 -0 -0 -0 -0 -0 -0 -0 -0 -0 -0 -0 -0 -0 -0 -0 -0 -0 -0 -0 -0 -0 -0 -0 -0 -0 -0 -0 -0 -0 -0 -0 -0 -0 -0 -0 -0 -0
-0 -0 -0 -0 -0 -0 -0 -0 -0 -0 -0 -0 -0 -0 -0 -0 -0 -0 -0 -0 -0 -0 -0 -0 -0 -0 -0 -0 -0 -0 -0 -0 -0 -0 -0 -0 -0 -0 -0 -0 -0 -0 -0
-0 -0 -0 -0 -0 -0 -0 -0 -0 -0 -0 -0 -0 -0 -0 -0 -0 -0 -0 -0 -0 -0 -0 -0 -0 -0 -0 -0 -0 -0 -0 -0 -0 -0 -0 -0 -0 -0 -0 -0 -0 -0 -0
-0 -0 -0 -0 -0 -0 -0 -0 -0 -0 -0 -0 -0 -0 -0 -0 -0 -0 -0 -0 -0 -0 -0 -0 -0 -0 -0 -0 -0 -0 -0 -0 -0 -0 -0 -0 -0 -0 -0 -0 -0 -0 -0
-0 -0 -0 -0 -0 -0 -0 -0 -0 -0 -0 -0 -0 -0 -0 -0 -0 -0 -0 -0 -0 -0 -0 -0 -0 -0 -0 -0 -0 -0 -0 -0 -0 -0 -0 -0 -0 -0 -0 -0 -0 -0 -0
-0 -0 -0 -0 -0 -0 -0 -0 -0 -0 -0 -0 -0 -0 -0 -0 -0 -0 -0 -0 -0 -0 -2 -2 -6 -0 -3 -0 -0 -0 -0 -0 -0 -0 -0 -0 -0 -0 -0 -0 -0 -0 -0
Wind_Speed
10 8 9 8 7 7 7 8 8 7 7 4 4 3 4 2 2 3 5 6 5 6 6 4 5 4 5 3 3 3 4 3 2 3 2 2 3 4 3 2 3 4 4
7 8 8 9 10 10 9 8 9 11 9 7 3 4 4 2 3 3 4 5 6 6 6 6 5 6 4 4 3 2 3 3 3 3 2 2 2 2 2 2 2 2 3
12 11 11 10 9 11 12 12 11 11 9 7 5 4 4 4 3 2 3 3 6 6 7 7 6 5 4 4 3 3 5 4 2 3 4 1 2 2 1 1 2 4 2
10 12 15 12 10 10 9 9 10 13 9 10 7 11 8 7 4 4 4 4 6 6 6 7 6 6 4 5 4 2 3 4 3 1 3 4 3 2 4 2 3 3 4
14 16 17 17 14 11 11 10 9 10 10 12 10 8 5 4 4 4 8 6 5 5 6 6 6 6 4 5 5 6 5 3 3 2 1 2 1 1 2 3 4 3 3
11 13 10 9 11 8 9 9 11 12 9 12 10 12 12 9 8 5 5 4 3 4 5 6 6 6 6 5 4 4 5 4 4 3 3 3 3 3 3 2 4 3 4
13 11 14 14 12 15 14 11 12 12 8 11 11 11 11 12 13 12 9 8 5 4 6 5 4 1 4 5 5 4 4 4 3 4 3 3 4 3 3 3 3 3 2
13 17 18 16 16 15 14 13 14 12 12 12 12 10 9 7 8 12 10 9 8 7 7 8 8 7 6 6 4 4 4 5 4 6 4 3 3 3 3 3 3 2 2
9 13 13 15 14 13 17 17 15 14 11 13 9 10 12 12 11 10 9 7 7 7 8 6 7 7 6 6 6 3 3 4 4 5 5 4 3 4 3 3 3 4 2
8 8 9 11 12 13 14 11 13 16 12 11 9 8 9 10 9 10 10 10 8 8 9 7 6 5 4 5 5 4 4 5 4 4 5 5 3 4 3 3 3 3 3
7 7 8 8 10 8 9 12 11 9 8 8 7 7 7 8 9 10 10 10 11 11 8 7 6 6 5 5 5 6 6 6 5 4 5 6 5 4 3 3 3 3 3
7 6 5 5 6 9 4 7 6 8 9 9 10 9 7 9 10 9 11 11 11 8 6 7 7 5 6 6 7 7 6 7 7 7 6 7 4 5 5 3 5 3 3
6 6 6 7 5 5 4 5 6 6 7 8 8 9 10 12 12 11 10 10 8 6 6 8 7 6 6 5 6 7 7 7 7 7 7 7 6 5 4 4 4 3 3
6 5 3 2 6 6 6 4 5 5 6 8 10 12 13 12 11 9 7 7 7 10 8 6 5 6 3 6 7 7 7 7 7 7 7 6 7 7 6 5 5 4 3
3 0 2 4 4 5 6 7 7 7 9 9 8 6 5 6 5 7 7 8 8 7 5 6 6 1 3 5 7 6 7 7 7 6 7 7 8 10 8 4 5 4 3
8 8 7 6 2 5 6 6 7 9 11 10 9 7 6 6 6 7 6 6 4 5 5 3 2 3 5 9 11 10 7 8 7 8 6 6 9 9 11 12 10 9 5
7 8 8 6 7 6 1 2 4 5 4 3 4 6 7 8 8 10 11 9 7 5 3 3 2 6 6 11 12 12 6 7 9 9 8 6 5 7 5 7 9 10 11
8 8 7 7 9 7 7 6 6 6 7 7 8 8 10 10 10 9 8 7 3 4 3 3 5 7 7 10 11 12 7 7 8 9 9 7 7 7 7 6 5 6 5
4 3 5 6 8 10 8 10 10 9 10 9 10 10 11 11 10 8 6 3 1 2 2 4 5 7 7 9 12 9 5 6 7 7 6 7 7 11 13 6 7 6 6
5 8 8 9 11 9 9 12 11 11 11 10 10 11 11 9 7 4 2 1 2 4 3 5 6 7 8 10 13 8 3 5 4 5 6 13 10 13 13 8 7 7 7
9 9 11 11 8 7 10 12 12 12 9 9 8 8 6 5 4 3 1 3 4 4 5 5 6 7 7 8 13 11 5 6 5 6 6 6 15 15 15 14 8 9 6
10 9 11 10 8 8 12 12 11 6 6 6 6 5 4 4 3 1 3 4 4 5 6 5 7 5 6 9 11 12 16 10 6 7 6 6 15 17 16 12 15 16 8
8 6 10 11 9 9 8 10 5 6 6 6 6 5 5 4 4 3 5 4 4 3 5 4 6 8 5 6 12 12 14 16 8 7 10 13 15 17 13 17 16 12 5
8 6 10 11 10 9 9 7 6 6 6 6 6 5 6 6 5 4 3 4 4 4 5 6 7 8 8 5 5 6 6 10 9 10 9 8 9 11 9 7 11 8 7
6 7 9 9 9 9 10 9 7 7 7 7 7 7 5 5 5 4 4 4 5 5 7 6 6 8 11 9 11 11 6 7 10 8 3 4 6 7 8 8 8 7 6
7 9 9 10 9 10 10 10 9 8 8 7 5 4 4 4 5 6 7 6 10 12 13 15 12 10 15 23 24 23 23 22 17 7 7 9 8 10 10 10 10 9 10
Wind_Direction
218 195 183 178 173 178 179 165 156 156 146 137 133 125 147 155 152 137 134 137 133 122 115 113 109 99 88 124 150 125 111 60 66 109 26 359 48 62 55 50 82 67 49
193 187 187 183 186 180 182 167 173 164 171 168 143 144 154 126 97 99 102 117 124 124 122 117 103 102 118 98 89 124 116 65 20 127 75 7 330 356 12 2 23 38 41
201 205 196 197 192 188 186 184 178 173 172 151 113 83 75 66 86 114 110 112 122 126 121 120 116 121 128 137 151 138 114 126 28 71 141 83 258 311 319 336 357 5 350
203 204 192 196 198 202 191 189 180 175 173 160 157 166 165 165 192 153 124 121 124 122 123 119 127 128 129 122 113 110 107 111 121 25 45 57 129 202 322 333 324 335 313
200 198 205 202 190 185 193 184 176 182 176 178 178 171 162 144 128 113 125 124 121 125 120 125 131 131 135 124 112 116 103 93 134 143 107 80 24 97 150 267 302 323 287
204 209 201 183 197 185 176 180 177 190 178 180 181 185 173 159 141 131 136 137 141 137 140 146 141 138 125 124 131 131 108 126 127 162 185 168 185 215 192 213 260 241 282
186 187 187 189 185 191 192 182 183 191 178 185 191 198 177 165 168 163 161 161 167 173 164 138 116 125 148 135 143 111 113 161 179 186 205 195 210 173 172 159 240 243 279
194 194 201 194 196 194 196 193 190 194 190 195 203 185 180 182 175 174 166 173 171 165 167 167 159 163 176 150 142 144 182 183 198 218 222 216 225 195 183 180 170 260 265
199 200 200 196 193 190 198 198 193 198 191 197 180 179 179 180 178 180 179 159 153 163 169 154 155 166 166 152 179 179 188 189 204 225 219 221 224 205 194 189 173 172 255
201 203 198 190 191 198 201 194 197 200 193 181 187 190 187 177 170 163 165 165 159 148 162 168 155 153 164 171 156 191 203 194 214 207 206 215 203 197 201 204 202 197 200
218 203 202 197 195 190 192 195 193 176 165 166 176 179 180 176 168 172 165 166 162 170 169 162 152 166 179 177 180 198 198 203 216 211 206 213 202 211 203 189 187 197 174
218 207 205 200 193 201 165 190 158 166 180 172 161 173 154 158 158 163 171 170 170 169 157 155 162 176 180 191 196 201 200 204 210 216 203 220 203 212 199 193 212 209 196
196 197 182 199 196 107 167 144 175 186 156 148 165 156 170 173 180 176 177 171 160 152 151 153 171 176 197 222 218 210 209 213 215 210 206 215 198 221 209 210 212 209 222
226 207 207 163 122 145 168 169 188 171 158 171 173 185 188 187 183 176 158 151 148 151 164 176 169 193 224 237 228 218 224 222 221 213 211 202 201 212 210 209 214 204 209
56 169 186 161 161 172 185 189 171 165 166 174 193 213 179 183 164 147 149 145 152 166 155 145 175 236 265 247 241 240 237 228 223 211 208 207 211 224 205 185 211 189 199
51 42 37 45 71 205 211 196 184 178 171 179 186 168 163 143 139 118 121 105 91 91 118 97 48 315 252 267 263 248 233 224 202 208 206 209 217 221 222 220 206 191 186
48 41 30 17 19 24 338 217 143 125 142 146 137 129 120 115 124 126 120 115 118 109 89 16 314 272 277 270 273 263 228 213 212 199 195 200 208 208 209 216 197 202 214
44 29 13 9 9 7 42 60 79 99 104 95 93 100 106 109 112 101 86 46 45 90 72 276 264 266 266 267 281 281 240 222 212 198 193 191 199 202 188 187 205 214 221
65 57 35 29 27 35 43 63 55 63 75 80 87 96 106 101 93 87 88 99 99 317 239 245 262 265 276 274 284 281 232 226 219 199 190 193 202 209 206 188 213 222 232
55 54 43 49 50 38 59 75 72 75 77 86 89 89 83 82 89 116 130 118 219 241 234 249 246 271 278 284 282 261 197 228 217 210 210 214 203 211 208 198 200 220 233
70 67 62 60 50 49 72 75 79 79 85 86 84 87 98 116 116 103 194 227 248 257 261 268 273 270 261 278 284 259 205 220 218 214 211 215 218 217 215 208 195 211 209
74 69 76 68 57 66 83 79 73 65 65 65 67 63 50 45 50 334 310 300 297 284 281 280 284 261 265 264 279 267 228 220 209 218 221 221 220 222 220 216 211 221 221
82 76 90 82 61 57 65 76 54 61 65 61 49 39 32 25 8 333 309 308 299 272 282 277 284 286 271 270 270 263 246 234 226 229 228 217 221 228 223 220 216 219 209
90 87 88 82 71 57 56 57 46 46 56 52 36 24 17 358 354 338 318 304 296 294 284 282 282 284 283 265 257 250 244 242 233 238 238 230 218 198 207 211 226 217 203
85 87 88 82 71 61 52 39 34 45 50 46 35 25 18 6 346 332 301 300 275 254 289 289 279 291 290 283 253 247 243 225 225 222 190 195 209 217 215 217 220 214 207
91 83 80 84 72 65 55 42 37 46 48 42 24 9 359 352 345 338 328 315 302 308 300 293 285 294 279 287 290 284 269 251 226 209 213 229 224 221 221 218 218 214 212